Theta_e
313 313 316 317 318 319 319 318 318 317 316 315 309 305 307 311 311 311 314 314 314 313 312 312 312 312 312 312 312 312 311 309 309 309 309 309 309 311 317 322 323 324 324 325
314 313 314 315 317 318 318 318 319 317 314 314 314 310 308 309 310 311 314 314 313 312 311 312 312 312 312 312 312 312 312 311 309 309 309 309 309 309 309 314 319 320 322 321
314 312 314 316 315 317 316 317 318 318 317 310 311 309 309 310 310 310 311 314 312 311 312 312 312 311 311 311 311 312 311 311 309 309 309 309 309 309 310 313 318 321 316 318
307 314 317 314 312 314 317 317 317 316 315 314 313 314 314 314 311 313 314 313 313 312 312 311 311 310 310 309 309 310 309 309 309 309 309 310 310 310 310 310 311 311 312 311
307 314 313 311 309 314 316 317 315 315 315 314 313 313 314 314 314 314 313 312 311 310 310 309 309 308 307 307 307 307 307 308 308 309 309 309 310 310 310 310 310 310 310 310
309 316 318 313 308 314 313 318 315 315 315 314 313 313 314 313 313 313 312 311 311 309 308 307 307 307 307 307 306 306 307 307 307 308 309 309 309 309 310 310 309 308 310 309
310 315 310 307 307 314 318 316 313 314 314 314 313 315 315 314 313 312 312 310 308 307 307 307 307 307 307 307 307 307 307 307 308 308 308 309 309 309 308 309 308 309 309 309
313 314 315 304 312 315 312 306 308 310 313 314 314 314 314 313 311 311 310 307 306 306 306 307 307 307 307 307 307 307 307 307 307 307 307 308 308 307 307 306 306 306 306 307
313 312 304 308 305 309 307 307 308 308 310 312 314 312 312 311 309 307 306 305 305 305 306 307 307 306 306 307 306 306 306 306 306 306 306 306 306 306 305 304 304 304 304 305
308 301 298 301 304 304 305 307 307 308 309 311 312 311 309 305 304 304 304 304 305 305 306 306 305 305 306 306 305 305 305 305 305 305 305 305 305 304 304 303 302 302 302 302
302 296 298 300 298 299 303 304 306 307 308 308 310 305 305 303 302 303 303 303 303 303 304 304 304 304 303 303 303 303 303 304 303 303 303 303 303 302 302 302 301 300 300 301
295 285 286 294 289 296 300 301 302 305 305 305 305 304 303 302 301 301 302 301 301 302 303 302 301 301 302 302 302 302 302 303 303 303 302 302 302 301 300 299 299 298 298 299
280 278 280 286 288 291 297 299 300 302 302 302 301 302 300 299 298 299 300 300 302 301 300 300 300 301 301 301 301 301 301 301 301 301 301 301 300 300 299 298 298 297 296 295
276 278 286 284 283 287 290 295 297 298 298 298 299 298 299 298 296 297 298 298 297 297 298 298 299 299 299 299 298 298 298 298 298 298 298 298 298 298 297 298 298 297 296 296
275 275 276 279 283 288 291 290 293 294 293 293 294 295 295 296 296 295 294 294 294 296 297 296 296 296 295 295 295 295 295 295 295 295 295 295 295 295 295 294 295 294 294 294
274 275 276 276 279 284 287 288 289 288 289 289 292 292 293 294 294 292 291 291 291 293 293 293 293 293 293 293 293 293 292 292 292 292 292 292 292 292 292 292 292 292 292 292
269 273 275 275 273 278 282 284 283 284 285 286 287 289 290 290 290 289 289 289 290 291 291 291 291 291 290 290 289 289 288 288 288 287 287 287 287 287 288 289 289 289 289 289
268 269 270 271 272 273 276 279 281 282 283 283 283 284 285 286 287 287 287 288 288 288 288 288 287 287 286 286 286 285 286 286 286 286 285 286 285 285 285 285 285 286 286 287
268 269 270 272 273 274 275 277 279 281 281 281 283 284 284 285 285 285 284 284 284 284 284 284 284 284 285 285 285 285 285 285 285 285 285 285 285 285 285 285 284 284 284 284
268 269 270 271 273 274 275 276 277 279 280 282 282 282 282 282 282 282 282 283 283 283 283 283 283 284 284 284 284 285 285 285 284 284 284 284 284 283 283 283 283 283 283 282
269 270 270 272 273 274 275 275 277 278 279 280 282 283 283 283 283 282 281 281 282 282 282 283 283 283 283 284 284 284 283 283 283 283 283 282 282 282 282 282 282 282 281 281
269 270 271 272 272 273 275 276 277 278 278 279 279 279 279 280 280 280 280 281 281 282 282 282 282 282 282 282 282 282 282 281 281 281 281 281 281 281 281 281 280 280 280 280
270 271 271 272 273 274 274 276 277 278 279 279 280 280 281 281 282 282 281 281 281 280 280 280 280 280 280 280 280 280 280 280 280 279 279 279 279 279 279 279 278 278 278 278
271 271 272 272 273 273 275 276 276 277 278 278 279 279 279 280 279 279 279 279 279 279 279 279 278 278 278 278 278 278 278 278 277 277 277 277 277 277 277 277 277 276 276 276
271 272 272 273 273 274 274 274 275 275 275 275 276 276 276 277 277 277 277 277 277 277 277 277 277 277 277 277 276 276 276 275 275 275 275 275 275 274 274 274 274 274 274 274
271 271 272 272 272 273 273 274 274 275 275 275 274 274 274 274 274 274 274 274 274 274 274 274 274 273 273 273 273 273 273 273 272 272 272 272 272 272 272 272 272 272 272 271
270 270 270 271 271 271 272 272 272 272 272 272 272 272 272 272 272 272 272 272 272 272 272 272 272 272 271 271 271 271 271 271 271 271 270 270 270 270 270 270 270 270 270 270
Wind_Speed
14 8 3 11 19 25 24 34 17 26 21 16 12 13 20 26 23 18 14 10 8 6 6 6 6 6 8 8 9 10 12 14 16 20 26 31 34 35 35 35 35 35 35 36
16 13 12 12 16 16 26 29 25 27 18 20 22 11 20 24 24 22 18 12 10 9 8 8 9 11 13 14 15 16 16 15 16 16 17 20 23 26 29 29 28 28 31 31
19 11 14 14 28 24 24 27 30 27 38 6 10 8 17 27 34 35 23 14 11 11 10 13 16 18 18 19 20 20 19 18 17 16 16 16 16 18 21 23 24 28 29 31
8 9 17 23 15 29 31 31 29 29 17 19 20 26 26 27 29 26 21 17 16 14 15 16 17 19 18 19 19 19 19 18 16 14 14 13 13 13 15 18 21 24 26 26
5 12 4 7 9 26 22 32 29 29 31 21 16 13 18 29 28 25 19 15 12 10 11 11 12 12 13 13 13 13 14 14 14 13 12 12 13 14 14 15 17 18 18 20
9 12 9 13 7 26 11 20 32 34 26 25 15 8 16 29 24 19 16 11 10 9 8 8 8 8 9 8 7 7 8 9 10 10 12 12 12 12 12 12 11 10 10 11
16 12 8 5 7 33 15 14 15 39 35 27 17 34 23 26 22 18 14 11 12 11 9 8 6 6 5 5 5 4 4 5 6 7 9 11 11 11 11 10 10 10 10 11
9 7 14 11 24 22 11 3 5 9 31 37 49 31 28 29 23 19 18 18 16 13 11 11 10 10 8 7 7 5 4 3 2 4 6 9 10 9 9 9 8 9 10 11
11 7 2 21 9 4 1 2 3 9 14 35 34 33 30 30 27 24 21 19 16 14 15 14 12 10 8 6 5 3 2 2 3 4 6 7 8 9 9 9 9 9 11 11
3 2 6 11 10 11 7 2 3 7 10 22 33 31 32 31 26 24 21 20 19 17 15 13 11 8 5 4 3 4 5 6 7 8 8 9 9 9 10 10 10 9 10 11
1 5 1 16 21 16 7 4 4 6 9 19 30 30 32 28 25 23 23 22 19 16 13 11 8 6 6 5 6 7 8 9 9 9 9 9 9 8 8 9 8 8 8 9
3 10 9 5 19 12 4 8 7 12 15 20 26 31 30 28 25 24 23 20 18 15 12 11 10 8 7 6 6 7 7 7 7 7 7 7 7 7 7 6 6 6 5 6
9 22 16 15 8 10 7 9 7 13 18 23 24 27 28 29 25 23 21 18 15 14 14 12 10 8 7 6 6 5 6 6 6 6 6 6 6 6 6 6 5 4 4 4
17 19 3 13 9 9 10 12 11 15 18 21 24 23 23 24 22 20 19 18 17 15 14 12 10 8 8 6 5 6 6 6 7 8 8 9 9 9 9 8 8 7 7 6
17 13 10 9 5 7 11 11 14 19 19 21 21 23 21 23 21 19 19 17 15 14 13 12 10 8 8 8 7 6 6 6 7 7 7 8 9 9 10 10 10 9 8 7
18 9 10 12 9 9 11 12 14 17 16 18 20 21 20 20 20 20 18 16 12 13 12 11 9 9 9 8 6 5 5 5 4 5 6 6 7 7 8 8 9 9 9 8
17 14 17 13 14 11 11 10 12 15 16 17 19 20 19 19 19 18 16 14 12 11 10 9 9 9 8 6 5 4 4 4 4 5 4 5 6 6 6 7 8 10 10 11
9 9 8 8 7 6 10 12 12 14 14 15 17 18 19 17 18 18 16 14 12 10 9 9 8 7 6 5 5 4 3 3 4 4 5 5 7 8 9 9 10 10 11 12
9 7 7 6 6 8 11 13 14 15 16 15 14 15 16 16 16 15 13 11 9 8 7 7 6 4 3 2 2 4 5 7 8 9 10 11 12 14 15 15 16 17 17 17
8 9 10 11 10 11 14 15 16 18 18 16 16 17 16 17 15 13 11 7 6 5 5 4 2 1 2 4 5 7 9 11 13 14 15 16 17 18 19 19 20 20 20 21
11 12 12 12 13 13 14 14 15 17 17 15 14 15 13 12 11 8 6 4 3 2 2 3 5 7 9 10 12 14 15 16 17 18 19 20 20 21 22 22 23 24 24 24
11 11 11 11 12 13 14 14 15 15 14 13 12 11 10 8 6 3 2 4 6 8 10 11 13 14 15 17 18 18 19 20 20 21 22 23 23 24 24 25 25 25 25 25
11 11 10 10 11 12 10 10 11 10 9 8 7 6 4 3 4 5 6 9 12 14 15 16 18 19 20 21 21 22 22 22 23 23 24 24 25 25 25 25 25 26 25 25
10 9 8 9 9 7 7 9 9 8 8 7 6 6 6 7 8 8 10 13 15 16 17 19 20 21 23 23 24 25 25 26 26 26 27 27 27 28 28 28 28 28 28 28
9 8 8 7 7 8 8 8 8 7 7 7 8 8 9 10 11 12 14 16 18 20 20 21 23 25 26 26 27 28 28 29 29 30 30 30 30 31 31 31 31 32 32 31
8 8 8 8 8 9 9 9 9 9 8 8 9 10 11 13 14 16 17 18 20 21 22 23 24 25 26 27 28 29 29 30 30 31 31 32 32 32 32 32 33 32 33 33
8 8 8 8 9 9 9 10 10 10 12 12 11 12 13 14 16 18 20 21 23 24 25 26 27 28 29 30 30 31 31 32 32 32 32 33 33 33 33 33 34 34 34 34
Wind_Direction
237 260 313 230 219 215 209 224 218 237 233 223 211 203 205 199 198 203 203 202 216 224 219 225 239 255 262 268 268 261 260 259 256 252 250 252 254 256 256 255 258 262 267 267
238 238 228 237 241 234 222 228 231 247 251 221 241 220 212 217 212 216 213 218 216 213 218 241 258 265 265 263 261 265 266 262 256 254 255 254 253 252 252 253 255 256 255 261
257 224 235 237 230 220 231 235 219 229 234 141 221 222 211 212 212 219 222 217 202 204 236 263 270 271 268 265 261 262 263 261 259 255 249 250 252 251 248 246 245 248 254 257
282 245 220 241 222 217 217 223 224 236 246 218 222 232 237 233 212 212 214 205 212 234 247 253 263 268 266 262 260 259 258 255 254 255 254 253 254 256 256 255 254 255 255 255
246 260 291 264 221 197 198 231 224 229 238 225 223 215 240 234 216 214 204 214 219 218 227 236 245 251 257 260 258 254 252 253 253 250 246 246 248 250 257 262 264 264 264 263
227 244 235 247 178 192 183 252 229 227 236 230 183 214 231 204 201 200 208 217 243 239 240 241 247 245 242 241 242 245 247 248 249 251 254 256 260 265 265 266 272 277 286 290
210 239 278 238 186 142 164 241 200 211 221 210 201 221 217 199 198 207 215 222 215 215 221 225 211 186 182 186 190 196 203 212 222 234 244 252 257 261 266 270 274 274 267 271
207 188 247 174 148 164 204 89 106 193 219 211 218 211 197 191 190 201 208 205 205 204 196 183 167 151 144 139 134 135 137 158 213 247 259 266 268 271 274 275 280 293 292 280
206 201 274 177 339 191 20 204 232 240 235 217 207 201 198 192 188 188 193 194 189 187 175 163 155 147 138 127 111 90 57 14 336 318 304 297 293 289 284 284 283 288 292 296
172 19 341 37 35 24 10 42 238 238 217 210 194 182 180 176 173 174 177 177 171 168 162 154 143 131 118 104 76 40 11 360 348 338 330 325 319 313 308 299 288 288 295 300
48 11 22 45 19 0 25 64 103 116 176 183 177 163 166 164 165 164 163 161 160 159 152 139 134 135 119 93 56 33 15 8 2 356 353 348 340 332 329 320 307 296 292 295
39 6 316 351 341 10 59 80 105 136 143 155 165 159 161 156 156 156 156 153 154 148 144 146 138 125 100 77 57 43 32 26 19 15 13 11 3 351 344 335 330 322 297 279
316 316 301 316 335 27 64 86 117 142 145 155 156 158 156 150 150 150 151 150 149 152 148 135 128 117 104 93 80 65 54 47 39 36 35 34 34 32 29 17 10 349 328 328
341 357 61 1 338 24 78 101 130 137 143 146 148 151 153 149 143 147 145 146 147 145 137 129 122 120 113 106 96 74 54 41 37 33 29 27 25 23 22 21 20 15 3 357
355 14 336 314 344 68 99 120 140 131 132 138 146 147 150 146 144 144 141 140 141 140 131 126 124 120 110 98 87 83 83 59 45 40 35 29 27 21 15 14 14 11 9 4
336 1 22 34 37 81 111 120 122 119 132 135 143 142 142 142 142 141 138 134 139 132 125 125 124 118 109 102 94 87 84 77 76 51 34 29 25 21 13 11 9 6 3 357
4 359 1 16 25 50 88 107 117 120 125 133 130 132 138 139 138 135 133 127 127 126 123 121 123 120 117 113 107 96 74 64 52 53 46 28 15 9 0 355 353 347 343 335
10 358 348 348 7 52 90 106 116 121 126 122 122 124 126 131 128 124 123 121 118 119 121 122 122 116 109 100 86 62 39 16 7 356 351 349 335 330 329 326 321 317 314 311
27 34 44 56 74 85 94 97 105 112 115 114 120 125 124 121 117 112 108 108 113 110 111 115 115 102 92 67 11 350 333 326 323 319 317 314 310 309 306 305 303 302 300 298
47 57 63 71 80 88 93 100 105 110 108 109 106 104 103 100 99 101 100 113 114 109 116 119 107 0 320 313 303 304 302 303 303 302 302 304 303 302 300 298 297 295 293 293
51 58 64 71 76 83 87 92 96 100 102 107 111 110 108 107 107 111 117 110 80 52 339 308 298 297 295 293 293 297 298 299 298 299 299 299 298 297 296 296 296 296 294 293
54 63 66 70 71 76 80 81 83 85 87 88 89 91 92 93 92 83 33 358 342 322 308 301 297 297 299 299 301 301 301 301 300 299 299 299 299 298 298 297 296 296 296 296
51 55 59 65 65 62 68 75 77 77 76 76 74 67 54 36 5 336 315 310 309 306 305 304 304 304 304 304 303 302 300 300 299 299 298 298 298 297 297 297 296 296 296 297
52 55 57 57 54 52 56 56 52 50 43 35 26 10 355 339 325 311 304 301 301 303 305 304 304 304 304 304 302 301 302 301 299 298 297 296 295 294 294 293 293 293 293 292
51 51 51 50 42 39 38 36 32 26 19 8 358 347 338 331 324 319 314 312 311 309 309 307 307 306 304 303 301 300 300 299 298 296 295 293 293 292 292 292 291 291 290 289
32 29 28 25 19 16 14 11 5 4 3 360 347 341 335 330 326 322 319 316 313 311 309 308 306 304 303 302 301 301 300 299 298 297 296 295 294 293 292 291 290 288 288 287
17 14 12 8 9 7 3 2 1 355 348 345 346 336 329 324 321 318 316 314 312 309 309 307 305 304 303 301 300 299 298 297 297 296 295 295 293 292 291 290 289 288 287 286